Theta_e
307 307 307 307 305 302 300 297 295 292 292 292 291 291 292 292 292 291 289 288 287 286 286 285 286 285 285 284 283 282 280 279 279 287 283 284 281 282 280 278 277 279 280
308 306 305 304 303 301 299 297 294 292 291 291 291 291 291 292 292 290 289 287 286 286 285 285 285 285 284 283 282 280 280 279 276 279 285 283 281 280 277 275 275 276 276
308 307 304 303 302 300 299 296 293 292 290 290 290 290 291 291 290 289 288 287 286 285 285 285 284 284 283 282 281 279 278 275 274 275 278 277 277 275 275 274 275 276 275
308 306 304 303 302 300 299 295 293 291 290 290 290 290 290 290 289 288 287 286 286 285 284 284 283 282 282 281 280 277 276 275 275 274 274 275 274 275 275 275 275 275 275
307 305 304 303 301 299 297 295 293 291 290 289 289 290 290 289 288 287 286 286 285 284 284 283 282 281 280 279 276 275 275 276 275 276 276 276 276 276 276 276 276 276 276
307 306 303 302 300 298 296 294 292 291 289 288 289 289 289 288 287 286 286 284 284 284 283 282 281 280 279 278 276 276 276 277 277 277 277 277 276 276 276 276 276 276 276
306 304 302 301 299 297 295 293 292 290 289 288 288 288 288 287 286 286 286 284 283 283 282 281 280 279 279 278 276 275 276 276 276 277 277 277 276 276 276 276 276 276 276
305 304 302 300 298 296 294 292 291 290 288 287 288 288 287 286 286 287 283 283 282 282 280 280 279 278 277 275 276 276 276 276 275 276 276 276 276 276 276 277 277 277 277
305 304 302 300 298 296 293 292 290 289 287 286 287 286 286 287 290 284 283 282 281 280 280 279 278 276 276 275 276 276 275 275 275 275 275 276 277 277 277 278 278 278 278
306 305 302 299 298 296 294 292 290 288 286 286 286 285 285 290 285 284 282 281 280 280 279 279 277 276 275 275 276 275 275 275 274 274 274 273 274 273 274 276 277 277 278
304 302 300 298 296 293 291 290 288 287 285 285 285 284 289 287 284 282 280 280 280 279 278 277 276 276 275 275 275 275 274 274 274 273 273 272 272 271 272 274 277 277 277
300 299 297 296 294 291 289 287 287 285 284 284 283 285 287 285 282 280 280 278 278 277 277 276 275 274 276 276 275 275 273 273 273 272 271 270 270 271 271 272 273 275 277
297 297 295 293 290 288 288 286 285 283 283 283 284 285 286 283 280 279 278 278 276 276 276 275 276 276 276 276 276 275 274 273 272 270 270 270 270 270 271 271 272 273 274
298 295 294 291 289 286 285 284 284 283 282 282 283 285 285 280 279 278 277 277 277 276 276 276 276 275 276 275 275 275 274 273 271 269 269 270 270 270 271 271 271 273 273
299 300 299 292 290 287 285 284 283 282 283 285 284 287 285 280 278 277 277 276 275 275 275 275 276 276 276 276 275 274 273 272 271 270 270 269 271 271 271 271 272 272 271
295 293 290 290 290 287 285 281 280 281 282 282 283 286 280 277 276 275 274 274 275 275 275 276 275 275 275 273 273 273 273 272 271 270 270 269 271 271 271 271 270 270 271
296 295 291 286 284 283 278 277 278 277 279 283 282 281 277 276 275 273 273 275 275 274 274 274 273 273 272 272 272 272 273 273 272 270 270 269 271 271 271 270 269 269 270
294 294 291 287 283 280 278 276 276 277 277 276 277 277 276 275 273 272 275 273 273 272 274 273 273 272 271 271 271 272 272 272 272 271 270 269 271 271 270 269 269 269 269
291 289 286 282 281 279 275 275 276 280 281 280 275 273 273 272 272 272 273 272 272 273 273 272 272 271 271 271 271 271 272 272 272 270 270 270 271 271 270 269 269 269 269
286 284 282 279 276 274 274 275 279 279 281 279 275 275 274 273 273 273 272 272 272 273 273 272 271 271 271 270 271 271 271 272 272 271 270 270 271 270 269 269 269 269 269
282 279 276 275 274 273 273 277 279 279 279 275 275 274 274 274 273 272 272 271 271 272 272 271 271 271 270 270 270 271 271 272 272 271 270 270 270 269 269 269 268 269 269
278 276 274 273 273 273 276 278 278 278 275 274 274 273 272 271 271 271 271 271 271 271 271 270 270 271 270 270 270 270 271 271 272 271 270 270 270 269 269 268 268 268 268
275 274 272 272 273 274 276 277 278 275 274 274 273 272 272 271 271 271 271 271 270 270 270 270 270 271 271 270 270 270 270 271 272 271 270 270 270 270 269 268 268 268 268
272 272 271 271 273 275 277 276 274 274 273 273 272 271 271 270 271 271 270 270 270 270 269 269 270 271 270 270 269 270 270 271 272 271 270 270 269 271 270 268 268 268 268
270 270 271 273 275 276 275 274 273 272 272 272 271 271 270 271 271 270 269 270 270 270 269 269 270 271 270 269 269 269 270 271 272 271 270 270 269 270 271 269 268 268 268
270 271 273 274 275 275 274 272 272 271 271 271 270 270 270 270 270 270 270 270 270 270 269 269 270 270 269 269 269 269 270 270 272 271 270 270 269 269 272 270 269 268 268
Wind_Speed
48 51 51 51 49 48 46 46 45 44 42 39 35 32 29 26 26 27 26 25 24 21 21 22 24 26 28 30 31 32 33 33 45 75 61 61 61 62 62 60 59 59 59
46 52 54 53 52 50 47 46 45 43 42 39 36 34 31 29 29 28 26 25 24 22 22 24 25 27 30 31 32 33 33 35 37 54 66 63 61 60 61 57 58 56 54
46 49 53 54 53 52 49 46 44 43 43 40 37 34 31 30 30 28 25 24 24 23 23 24 27 29 31 31 31 34 34 33 35 43 63 60 63 60 58 53 54 58 54
46 49 52 52 52 52 51 45 43 43 43 42 38 35 33 32 30 27 25 24 23 23 23 25 28 29 31 32 32 32 34 35 37 42 52 61 53 54 51 52 55 50 52
48 49 50 50 50 51 50 45 42 42 43 42 39 38 36 33 29 26 25 25 22 23 23 25 28 29 29 28 28 31 32 37 39 42 47 48 53 50 45 49 51 56 54
49 49 49 49 50 51 48 46 43 43 44 44 42 40 36 31 27 26 26 23 23 22 23 26 28 28 27 27 26 28 31 37 43 45 49 50 56 51 51 49 49 52 59
49 48 48 47 49 49 46 45 44 45 45 46 43 38 34 29 26 25 24 25 22 22 24 25 27 27 26 30 32 31 33 35 38 43 53 55 57 55 52 54 51 54 60
45 46 47 46 47 47 46 45 45 45 46 47 43 39 33 27 26 25 26 22 21 22 22 24 26 25 25 30 32 35 39 44 46 44 47 54 55 57 53 56 59 59 65
40 44 46 45 46 47 46 46 45 46 48 48 41 37 32 28 27 28 24 21 20 20 20 22 23 25 29 26 31 39 47 48 40 39 42 44 46 48 48 50 54 49 54
36 40 42 44 45 46 45 46 46 44 47 46 41 36 29 26 30 26 22 18 18 18 20 22 23 26 24 25 31 38 46 48 43 47 49 47 53 58 43 39 46 48 50
36 37 40 41 43 43 44 46 45 47 50 46 40 35 27 31 26 25 19 18 15 16 19 23 23 23 22 28 27 33 37 39 44 49 46 43 44 42 40 35 38 45 49
33 34 37 40 42 43 43 46 45 50 50 45 40 33 31 29 27 22 20 13 12 14 18 19 20 20 25 27 27 29 29 31 35 40 41 41 42 42 40 41 39 47 43
30 32 35 38 40 42 43 47 47 52 50 45 39 32 31 28 24 21 14 12 12 11 12 12 17 20 23 23 25 26 27 30 32 36 40 39 41 45 45 44 44 37 42
27 31 33 36 38 40 42 45 48 54 50 45 39 35 31 28 23 17 13 11 9 8 8 10 15 17 19 24 26 27 29 29 31 34 40 39 43 45 44 41 42 39 43
36 36 36 38 39 41 44 48 53 53 46 39 37 30 32 28 23 18 12 7 7 6 6 9 12 17 22 25 28 30 31 32 35 35 41 40 44 46 44 41 38 43 44
39 38 41 43 45 46 48 51 52 51 45 39 30 31 28 21 21 16 13 13 9 3 5 9 13 18 22 26 30 34 35 36 38 39 42 38 46 45 45 45 43 39 40
44 41 43 47 44 45 48 53 55 46 42 39 34 32 27 23 18 14 13 11 7 2 5 9 13 17 21 25 29 33 38 39 41 42 45 40 46 49 48 45 41 39 39
45 43 45 48 46 45 47 52 52 49 41 32 30 30 28 23 19 15 14 11 6 4 5 9 12 16 20 24 29 33 36 40 43 45 47 42 48 51 49 46 41 39 40
45 43 45 46 43 44 48 51 50 46 42 40 34 27 26 21 19 17 15 10 9 5 5 8 12 15 19 24 28 32 35 40 43 45 46 42 52 51 49 46 44 42 41
40 41 43 42 39 45 50 53 49 45 43 38 36 32 31 29 24 18 14 10 8 2 4 8 11 14 18 22 27 32 36 40 43 44 45 45 55 52 49 47 45 45 43
38 39 39 37 37 40 48 53 50 44 35 35 32 29 26 23 20 16 12 9 5 3 5 8 12 15 17 21 26 30 34 38 42 43 44 52 58 54 51 47 47 43 42
34 35 36 40 42 44 51 51 44 38 36 34 31 28 26 23 18 15 12 7 4 5 6 8 12 16 19 21 25 29 33 37 40 41 44 58 57 55 53 51 48 46 43
31 34 38 39 42 48 48 42 38 35 34 32 31 28 25 22 19 14 11 7 6 5 8 10 12 13 16 18 20 26 30 34 37 39 48 57 56 59 57 53 50 49 47
30 33 37 41 42 43 41 38 35 34 33 31 29 24 22 20 16 14 11 8 6 6 8 11 12 15 17 18 19 22 26 29 35 40 50 54 56 61 58 55 52 53 49
28 32 33 37 41 40 37 35 35 34 31 29 27 23 21 17 15 13 9 7 6 7 9 11 13 15 16 18 19 21 26 27 36 41 47 53 57 58 59 56 56 54 50
25 28 35 39 38 35 34 35 33 30 28 27 24 22 18 16 14 10 7 7 8 10 11 12 14 15 16 17 20 21 24 28 34 40 45 52 56 57 58 57 60 56 53
Wind_Direction
238 237 236 236 235 237 239 238 237 234 233 232 232 234 238 245 254 261 268 274 276 279 284 286 290 294 295 295 294 293 290 285 282 294 294 299 300 301 302 304 305 303 299
243 241 239 238 238 238 238 237 235 233 232 231 232 232 236 242 251 257 263 270 274 279 283 287 292 295 296 298 299 297 294 294 285 291 300 301 302 304 307 304 306 307 302
245 244 241 241 239 239 239 237 234 231 231 230 230 232 236 242 248 255 261 267 273 279 284 290 296 298 299 302 303 301 300 294 289 288 297 302 305 305 303 298 301 304 300
246 243 241 241 241 240 240 235 232 231 230 229 228 230 234 241 247 254 260 267 272 279 286 293 297 299 302 303 303 299 300 298 294 283 283 291 291 296 296 295 297 294 295
245 242 241 241 241 240 238 235 232 230 229 227 225 227 232 238 244 250 260 268 273 280 290 296 297 300 302 305 295 293 296 295 289 282 279 282 286 289 289 294 292 294 290
244 244 241 239 238 238 236 232 229 228 226 224 224 226 231 237 242 250 259 266 272 283 293 296 299 302 304 305 298 288 287 290 288 286 285 282 282 282 286 284 285 288 288
243 241 239 239 236 235 233 229 226 225 223 222 222 225 231 235 242 252 266 267 277 287 294 297 300 302 307 315 311 295 294 290 285 287 286 283 284 286 286 284 282 281 280
240 240 238 235 234 233 230 227 225 224 222 220 219 224 227 230 241 255 258 265 275 285 289 299 302 310 315 305 306 304 302 299 296 293 287 288 286 288 285 283 283 278 280
238 239 238 234 233 231 228 226 224 222 218 217 217 221 222 230 242 246 254 264 273 280 294 299 307 310 309 304 304 305 304 305 301 297 293 286 284 284 283 284 281 278 274
240 239 236 234 233 232 229 225 222 219 218 216 216 218 219 233 240 246 248 252 266 285 294 303 309 306 303 305 306 306 301 310 317 312 303 291 287 291 291 278 281 272 270
238 238 235 234 233 231 227 224 220 214 212 212 213 215 220 234 236 241 243 248 267 282 294 297 305 311 308 306 308 299 306 314 305 303 308 308 310 308 301 288 284 274 267
244 240 237 235 231 228 226 223 218 212 209 208 209 210 220 225 233 233 236 235 257 267 280 299 313 313 314 318 314 317 312 309 315 326 319 312 308 308 304 297 290 270 271
252 245 241 237 232 229 225 221 214 210 207 205 207 211 218 223 221 222 220 234 245 266 292 306 316 322 322 322 328 333 331 330 332 322 319 313 309 310 307 303 304 291 287
265 255 246 238 235 231 225 222 215 210 205 203 204 209 215 218 214 210 219 232 249 276 302 325 328 324 333 339 341 343 341 342 338 320 319 321 312 312 309 306 303 295 293
253 252 250 240 236 229 225 221 211 212 210 211 211 214 223 216 207 204 214 235 262 275 326 331 322 342 344 346 348 349 347 346 341 332 330 320 315 314 310 309 301 296 289
251 247 241 235 226 223 219 212 209 207 206 207 211 218 213 205 199 189 184 212 228 260 315 331 344 349 347 351 351 350 351 348 345 341 335 317 317 318 315 310 304 296 290
259 253 246 240 231 220 214 205 198 193 197 199 205 203 200 199 192 179 191 197 211 253 302 336 347 348 348 348 349 349 349 348 347 346 335 319 320 321 317 312 307 301 294
255 252 247 242 232 220 211 201 198 183 175 175 186 191 187 182 177 175 191 193 208 244 318 339 346 348 350 349 349 348 348 350 349 349 341 325 324 322 318 314 309 304 299
250 243 241 235 227 218 204 194 193 194 191 187 176 172 175 174 170 186 183 193 223 254 329 337 345 346 349 351 350 350 350 349 348 349 341 333 327 324 319 316 312 308 302
241 237 233 228 216 201 193 194 195 195 194 188 184 183 179 175 182 184 189 200 220 264 331 332 341 342 350 351 350 351 352 351 350 349 343 334 331 327 322 319 316 311 305
230 224 217 210 206 191 191 193 195 193 189 185 183 182 184 184 183 188 195 208 225 300 321 338 343 346 350 350 351 352 351 351 351 347 346 335 337 331 328 324 320 315 309
219 211 203 198 194 192 193 194 190 184 183 182 178 177 183 181 184 191 202 213 245 284 321 340 341 348 351 352 352 352 351 351 351 349 346 339 342 337 333 329 327 323 318
205 197 191 192 192 191 189 183 178 177 179 180 179 181 177 180 183 193 206 219 244 291 319 324 333 341 347 351 352 352 348 352 354 354 343 346 346 344 341 335 332 330 326
192 189 187 187 187 181 176 169 170 177 178 177 180 180 179 184 183 199 211 226 254 299 312 318 328 337 343 347 349 351 350 357 0 354 344 353 351 352 350 343 339 336 334
183 182 184 182 173 167 164 166 171 173 174 175 176 180 185 186 194 206 216 244 276 299 310 316 330 335 335 343 346 349 347 0 7 346 347 358 357 356 357 353 348 344 342
177 176 171 165 161 161 164 168 168 169 172 173 176 182 187 192 202 212 235 264 285 298 309 322 334 333 330 340 348 350 353 4 5 341 354 359 358 357 1 0 358 352 350